Regional Weather Roundup
Issued by NWS Bismarck, ND

Home | Current Version | Previous Version | Text Only | Print | Product List | Glossary On
Versions: 1 2 3 4 5 6 7 8 9 10 11 12 13 14 15 16 17 18 19 20 21 22 23 24 25 26 27 28 29 30 31 32 33 34 35 36 37 38 39 40 41 42 43 44 45 46 47 48 49 50
000
ASUS43 KBIS 182159
RWRBIS

NWR BROADCAST TEXT
NATIONAL WEATHER SERVICE BISMARCK ND
500 PM CDT FRI APR 18 2014

NOTE: "FAIR" INDICATES FEW OR NO CLOUDS BELOW 12,000 FEET WITH NO
SIGNIFICANT WEATHER AND/OR OBSTRUCTIONS TO VISIBILITY.


CITY           SKY/WX    TMP DP  RH WIND       PRES   REMARKS
WILLISTON      CLOUDY    57  34  41 S16G23    29.68R
MINOT          PTSUNNY   53  31  42 SE28G37   29.77F
MINOT AFB      NOT AVBL
BISMARCK       CLOUDY    63  38  39 SE30G38   29.73F
DICKINSON      NOT AVBL
GARRISON         N/A     55  35  47 SE23G33   29.73F
HETTINGER ARPT PTSUNNY   63  39  41 SE17G28   29.65F
JAMESTOWN      NOT AVBL
CARRINGTON     FAIR      50  32  50 SE35G44   29.89F
CROSBY         FAIR      50  30  46 SE15G26   29.74R
HARVEY         FAIR      50  32  50 SE26G38   29.83F
HAZEN          FAIR      59  36  41 SE26G36   29.72F
LINTON         FAIR      66  41  39 SE28G40   29.70F
OAKES          FAIR      50  37  62 E32G40    29.93F
RUGBY          FAIR      48  32  53 SE30G40   29.87F
WATFORD CITY   FAIR      54  34  47 SE20G31   29.65S
$$

CITY           SKY/WX    TMP DP  RH WIND       PRES   REMARKS
GRAND FORKS    CLOUDY    50  28  42 SE26G36   30.06F
GRAND FORKS AF NOT AVBL
DEVILS LAKE    CLOUDY    48  30  49 SE24G35   29.94F
FARGO          MOSUNNY   51  29  42 SE26G37   30.06F
CANDO          FAIR      48  30  49 SE26G43   29.94F
CAVALIER       MOCLDY    48  28  46 SE17G26   30.07F
GRAFTON        MOCLDY    48  30  49 SE22G32   30.06F
GWINNER        CLEAR     52  34  50 SE32G39   30.00F
LANGDON        CLOUDY    45  27  49 SE29G39   29.99F
$$

CITY           SKY/WX    TMP DP  RH WIND       PRES   REMARKS
ABERDEEN       MOSUNNY   67  38  34 S35G43    29.85F
MOBRIDGE       PTSUNNY   70  39  32 SE24G31   29.65F
RAPID CITY     CLOUDY    73  37  27 S24G32    29.64F
GLASGOW        PTSUNNY   48  43  82 SE8       29.65S
SIDNEY         CLOUDY    61  37  41 SE16      29.64F
WOLF POINT     RAIN      49  45  86 W9        29.69R FOG
GLENDIVE       CLOUDY    63  36  36 NW24G32   29.63R
MILES CITY     CLOUDY    58  38  47 NW29G35   29.69R
BAKER          CLOUDY    73  37  27 W17G26    29.59F
$$

CITY           SKY/WX    TMP DP  RH WIND       PRES   REMARKS
BILLINGS       PTSUNNY   60  37  42 VRB3      29.68F
GREAT FALLS    PTSUNNY   53  15  22 W35G44    29.71S
REGINA         SNOWSHWR  36  32  87 SE24G31   29.74F FOG
$$




USA.gov is the U.S. government's official web portal to all federal, state and local government web resources and services.